Flag for U.S.A. Weather past 2 weeks in Brattleboro, Vermont, U.S.A.

Now
84 °F

Sunny.


Feels Like: 88 °F
Forecast: 64 / 88 °F
Wind: 10 mph from Southwest

Location: Keene / Dillant

Current Time: Jul 30, 2015 at 3:22:22 PM

Latest Report: Jul 30, 2015 at 2:55 PM


Visibility: 10 mi

Pressure: 29.79 "Hg

Humidity: 62%

Dew point: 70 °F

Location of BrattleboroLocation

Historic Weather in Brattleboro — Graph

°F

Brattleboro temperature yesterday

Maximum temperature yesterday: 91 °F (at 3:15 PM)
Minimum temperature yesterday: 61 °F (at 5:35 AM)
Average temperature yesterday: 76 °F

Past Weeks' High & Low Weather Summary

 TemperatureHumidityPressure
High91 °F (Jul 29, 3:15 PM)88% (Jul 19, 3:15 AM)30.15 "Hg (Jul 19, 3:15 AM)
Low46 °F (Jul 16, 4:35 AM)31% (Jul 16, 6:15 PM)29.57 "Hg (Jul 21, 2:55 PM)
Average70 °F68%29.90 "Hg
* Reported Jul 15 2:15 PM — Jul 30 2:15 PM, Brattleboro, Weather by CustomWeather, © 2015

Note: Actual official high and low records may vary slightly from our data, if they occured in-between our weather recording intervals... More about our weather records

Advertising

Brattleboro weather history for previous 24 hours

 ConditionsComfort  
Time TempWeatherWind HumidityBarometerVisibility
2:15 PM
Thu, Jul 30
86 °FBroken clouds.12 mph59%29.80 "Hg10 mi
1:55 PM88 °FBroken clouds.13 mph55%29.80 "Hg10 mi
1:35 PM88 °FBroken clouds.12 mph55%29.81 "Hg10 mi
1:15 PM86 °FScattered clouds.15 mph59%29.81 "Hg10 mi
12:55 PM86 °FBroken clouds.16 mph59%29.82 "Hg7 mi
12:35 PM88 °FPassing clouds.16 mph55%29.82 "Hg10 mi
12:15 PM86 °FPassing clouds.17 mph59%29.83 "Hg10 mi
11:55 AM84 °FScattered clouds.13 mph62%29.83 "Hg10 mi
11:35 AM86 °FPassing clouds.12 mph55%29.84 "Hg10 mi
11:15 AM86 °FSunny.12 mph55%29.84 "Hg10 mi
10:55 AM84 °FSunny.12 mph58%29.85 "Hg10 mi
10:35 AM84 °FSunny.10 mph58%29.85 "Hg10 mi
10:15 AM82 °FSunny.3 mph58%29.86 "Hg10 mi
9:55 AM81 °FSunny.3 mph62%29.86 "Hg10 mi
9:35 AM79 °FSunny.6 mph61%29.87 "Hg10 mi
9:15 AM75 °FSunny.No wind69%29.88 "Hg10 mi
8:55 AM75 °FSunny.No wind65%29.88 "Hg10 mi
8:35 AM72 °FSunny.No wind73%29.89 "Hg10 mi
8:15 AM70 °FSunny.No wind73%29.90 "Hg10 mi
7:55 AM68 °FSunny.No wind78%29.90 "Hg10 mi
7:35 AM66 °FSunny.No wind78%29.91 "Hg9 mi
7:15 AM64 °FSunny.No wind83%29.90 "Hg5 mi
6:55 AM64 °FPassing clouds.No wind78%29.90 "Hg2 mi
6:35 AM63 °FPassing clouds.No wind83%29.91 "Hg1 mi
6:15 AM63 °FLow clouds.No wind83%29.90 "Hg1 mi
5:55 AM63 °FLow clouds.No wind77%29.90 "Hg0 mi
5:35 AM63 °FPassing clouds.3 mph83%29.90 "Hg1 mi
5:15 AM63 °FClear.No wind83%29.90 "Hg1 mi
4:55 AM63 °FLow clouds.No wind83%29.90 "Hg1 mi
4:35 AM63 °FPassing clouds.No wind83%29.90 "Hg1 mi
4:15 AM63 °FClear.No wind83%29.91 "Hg4 mi
3:55 AM64 °FClear.No wind78%29.91 "Hg1 mi
3:35 AM64 °FClear.No wind83%29.91 "Hg1 mi
3:15 AM64 °FDense fog.No wind83%29.91 "Hg1 mi
2:55 AM64 °FClear.No wind88%29.91 "Hg1 mi
2:35 AM64 °FDense fog.No wind88%29.91 "Hg1 mi
2:15 AM64 °FClear.No wind88%29.91 "Hg2 mi
1:55 AM66 °FClear.No wind83%29.92 "Hg5 mi
1:35 AM66 °FClear.No wind83%29.92 "Hg1 mi
1:15 AM66 °FClear.3 mph83%29.92 "Hg1 mi
12:55 AM66 °FClear.No wind83%29.92 "Hg7 mi
12:35 AM66 °FClear.No wind88%29.92 "Hg3 mi
11:35 PM
Wed, Jul 29
68 °FClear.No wind83%29.92 "Hg7 mi
11:15 PM70 °FClear.No wind78%29.92 "Hg10 mi
10:55 PM70 °FClear.No wind78%29.92 "Hg3 mi
10:35 PM70 °FClear.No wind78%29.93 "Hg10 mi
10:15 PM72 °FClear.No wind78%29.93 "Hg10 mi
9:55 PM72 °FClear.No wind78%29.93 "Hg10 mi
9:35 PM73 °FClear.No wind74%29.92 "Hg10 mi
9:15 PM73 °FClear.No wind74%29.92 "Hg10 mi
8:55 PM75 °FSunny.3 mph69%29.91 "Hg10 mi
8:35 PM75 °FSunny.5 mph74%29.91 "Hg10 mi
8:15 PM79 °FSunny.5 mph65%29.90 "Hg10 mi
7:55 PM82 °FSunny.3 mph62%29.91 "Hg10 mi
7:35 PM86 °FSunny.No wind59%29.90 "Hg10 mi
7:15 PM88 °FSunny.5 mph49%29.90 "Hg10 mi
6:55 PM90 °FPassing clouds.6 mph46%29.90 "Hg10 mi
6:35 PM90 °FPassing clouds.7 mph46%29.90 "Hg10 mi
5:55 PM88 °FSunny.8 mph49%29.90 "Hg10 mi
5:35 PM90 °FSunny.9 mph46%29.90 "Hg10 mi
5:15 PM90 °FSunny.8 mph46%29.91 "Hg10 mi
4:55 PM90 °FSunny.10 mph46%29.91 "Hg10 mi
4:35 PM91 °FSunny.9 mph44%29.91 "Hg10 mi
4:15 PM91 °FSunny.10 mph44%29.91 "Hg10 mi
3:55 PM91 °FSunny.10 mph44%29.91 "Hg10 mi
3:35 PM91 °FPassing clouds.9 mph44%29.91 "Hg10 mi
3:15 PM91 °FPassing clouds.6 mph41%29.92 "Hg10 mi
Weather by CustomWeather, © 2015

See weather overviewHow to use our weather pages